Weather past 2 weeks in Bantam, Cocos Islands

Now
84 °F

Scattered clouds.


Feels Like: 94 °F
Forecast: 81 / 87 °F
Wind: 8 mph from Southeast

Location: Cocos Island Airport

Current Time: Mar 28, 2015 at 11:09:23 AM

Latest Report: Mar 28, 2015 at 10:00 AM


Visibility: N/A

Pressure: 29.89 "Hg

Humidity: 79%

Dew point: 77 °F

Location of BantamLocation

Historic Weather in Bantam — Graph

°F

Bantam temperature yesterday

Maximum temperature yesterday: 86 °F (at 1:00 PM)
Minimum temperature yesterday: 77 °F (at 5:30 AM)
Average temperature yesterday: 81 °F

Past Weeks' High & Low Weather Summary

 TemperatureHumidityPressure
High88 °F (Mar 13, 11:30 AM)100% (Mar 15, 6:00 AM)29.95 "Hg (Mar 15, 6:00 AM)
Low77 °F (Mar 14, 7:30 AM)62% (Mar 13, 11:30 AM)29.77 "Hg (Mar 17, 3:00 PM)
Average83 °F81%29.87 "Hg
* Reported Mar 13 8:30 AM — Mar 28 9:00 AM, Bantam, Weather by CustomWeather, © 2015

Note: Actual official high and low records may vary slightly from our data, if they occured in-between our weather recording intervals... More about our weather records

Advertising

Bantam weather history for previous 24 hours

 ConditionsComfort  
Time TempWeatherWind HumidityBarometerVisibility
9:00 AM
Sat, Mar 28
84 °FScattered clouds.9 mph79%29.89 "HgN/A
8:30 AM84 °FScattered clouds.10 mph79%29.89 "HgN/A
8:00 AM82 °FScattered clouds.10 mph84%29.89 "HgN/A
7:30 AM81 °FPartly sunny.10 mph84%29.89 "HgN/A
7:00 AM81 °FPartly cloudy.9 mph84%29.86 "HgN/A
6:30 AM79 °FScattered showers. Partly cloudy.10 mph94%29.86 "HgN/A
6:00 AM79 °FPartly cloudy.13 mph89%29.86 "HgN/A
5:30 AM79 °FScattered showers. Partly cloudy.8 mph89%29.86 "HgN/A
5:00 AM79 °FPartly cloudy.8 mph89%29.86 "HgN/A
4:30 AM79 °FOvercast.12 mph89%29.83 "HgN/A
3:30 AM79 °FMostly cloudy.12 mph89%29.83 "HgN/A
3:00 AM79 °FRain showers. Mostly cloudy.6 mph94%29.83 "Hg3 mi
2:35 AM79 °FSprinkles. Overcast.3 mph89%29.86 "HgN/A
1:30 AM81 °FSprinkles. Overcast.12 mph84%29.86 "HgN/A
1:00 AM81 °FPartly cloudy.7 mph89%29.86 "HgN/A
12:30 AM81 °FPassing clouds.8 mph84%29.89 "HgN/A
12:00 AM81 °FPartly cloudy.10 mph89%29.89 "HgN/A
11:30 PM
Fri, Mar 27
81 °FPartly cloudy.13 mph94%29.89 "HgN/A
11:00 PM79 °FOvercast.5 mph94%29.89 "Hg6 mi
10:31 PM79 °FHeavy rain. Partly cloudy.15 mph89%29.92 "Hg3 mi
9:30 PM81 °FPartly cloudy.10 mph94%29.92 "HgN/A
9:00 PM79 °FPassing clouds.No wind89%29.89 "HgN/A
8:30 PM79 °FRain showers. Partly cloudy.3 mph89%29.89 "Hg4 mi
8:21 PM79 °FLight rain. Partly cloudy.2 mph89%29.89 "HgN/A
8:00 PM79 °FRain. Mostly cloudy.10 mph89%29.89 "Hg2 mi
7:30 PM81 °FWarm.16 mph84%29.89 "HgN/A
7:00 PM82 °FBroken clouds.12 mph84%29.86 "HgN/A
6:30 PM82 °FScattered clouds.9 mph84%29.86 "HgN/A
6:00 PM82 °FScattered clouds.9 mph84%29.86 "HgN/A
5:30 PM82 °FSunny.10 mph84%29.83 "HgN/A
5:00 PM84 °FScattered clouds.12 mph79%29.83 "HgN/A
4:30 PM84 °FPartly sunny.12 mph79%29.83 "HgN/A
4:00 PM84 °FPartly sunny.12 mph79%29.83 "HgN/A
3:30 PM84 °FPartly sunny.13 mph79%29.83 "HgN/A
2:30 PM84 °FPartly sunny.13 mph79%29.83 "HgN/A
2:00 PM84 °FPartly sunny.13 mph79%29.86 "HgN/A
1:30 PM84 °FPartly sunny.12 mph74%29.86 "HgN/A
1:00 PM86 °FPartly sunny.16 mph79%29.86 "HgN/A
12:30 PM84 °FPartly sunny.16 mph79%29.86 "HgN/A
12:00 PM84 °FPartly sunny.15 mph84%29.89 "HgN/A
11:30 AM84 °FPartly sunny.14 mph79%29.89 "HgN/A
11:00 AM82 °FPartly sunny.13 mph84%29.92 "HgN/A
Weather by CustomWeather, © 2015

See weather overviewHow to use our weather pages